Flag for U.S.A. Weather past 2 weeks in Albuquerque, New Mexico, U.S.A.

Now
78 °F

Passing clouds.


Feels Like: 78 °F
Forecast: 62 / 87 °F
Wind: 7 mph from East

Location: Albuquerque International Airport

Current Time: Aug 30, 2015 at 11:56:52 PM

Latest Report: Aug 30, 2015 at 10:52 PM


Visibility: 10 mi

Pressure: 29.85 "Hg (25.12 "Hg at 1510m altitude)

Humidity: 31%

Dew point: 45 °F

Location of AlbuquerqueLocation

Historic Weather in Albuquerque — Graph

°F

Albuquerque temperature yesterday

Maximum temperature yesterday: 88 °F (at 2:52 PM)
Minimum temperature yesterday: 67 °F (at 6:52 AM)
Average temperature yesterday: 77 °F

Past Weeks' High & Low Weather Summary

 TemperatureHumidityPressure
High96 °F (Aug 18, 2:52 PM)87% (Aug 27, 5:52 AM)30.30 "Hg (Aug 27, 5:52 AM)
Low62 °F (Aug 20, 6:52 AM)9% (Aug 18, 3:52 PM)29.57 "Hg (Aug 18, 5:52 PM)
Average77 °F40%29.91 "Hg
* Reported Aug 15 10:52 PM — Aug 30 10:52 PM, Albuquerque, Weather by CustomWeather, © 2015

Note: Actual official high and low records may vary slightly from our data, if they occured in-between our weather recording intervals... More about our weather records

Advertising

Albuquerque weather history for previous 24 hours

 ConditionsComfort  
Time TempWeatherWind HumidityBarometerVisibility
10:52 PM
Sun, Aug 30
78 °FPassing clouds.7 mph31%29.85 "Hg10 mi
9:52 PM81 °FPassing clouds.7 mph28%29.85 "Hg10 mi
8:52 PM84 °FPassing clouds.7 mph24%29.82 "Hg10 mi
7:52 PM86 °FScattered clouds.8 mph21%29.81 "Hg10 mi
6:52 PM89 °FScattered clouds.7 mph19%29.80 "Hg10 mi
5:52 PM91 °FScattered clouds.6 mph19%29.80 "Hg10 mi
4:52 PM92 °FPassing clouds.5 mph16%29.81 "Hg10 mi
3:52 PM90 °FScattered clouds.No wind18%29.84 "Hg10 mi
2:52 PM88 °FScattered clouds.6 mph21%29.87 "Hg10 mi
1:52 PM86 °FPassing clouds.6 mph25%29.90 "Hg10 mi
12:52 PM84 °FPassing clouds.8 mph29%29.94 "Hg10 mi
11:52 AM81 °FPassing clouds.3 mph34%29.98 "Hg10 mi
10:52 AM78 °FPassing clouds.5 mph37%30.00 "Hg10 mi
9:52 AM75 °FPassing clouds.3 mph42%30.01 "Hg10 mi
8:52 AM71 °FPassing clouds.5 mph49%30.02 "Hg10 mi
7:52 AM67 °FPassing clouds.7 mph57%30.03 "Hg10 mi
6:52 AM64 °FPassing clouds.7 mph61%30.00 "Hg10 mi
5:52 AM66 °FClear.6 mph54%29.97 "Hg10 mi
4:52 AM67 °FClear.7 mph51%29.97 "Hg10 mi
3:52 AM68 °FClear.6 mph51%29.98 "Hg10 mi
2:52 AM71 °FClear.No wind47%29.95 "Hg10 mi
1:52 AM73 °FClear.No wind44%29.96 "Hg10 mi
12:52 AM72 °FPassing clouds.5 mph44%29.97 "Hg10 mi
11:52 PM
Sat, Aug 29
73 °FPassing clouds.6 mph41%29.97 "Hg10 mi
Weather by CustomWeather, © 2015

See weather overviewHow to use our weather pages